TimeCST,TemperatureF,Dew PointF,Humidity,Sea Level PressureIn,VisibilityMPH,Wind Direction,Wind SpeedMPH,Gust SpeedMPH,PrecipitationIn,Events,Conditions,WindDirDegrees,DateUTC
12:53 AM,63.0,62.1,97,29.95,9.0,SW,8.1,-,N/A,,Mostly Cloudy,220,2013-12-02 06:53:00
1:53 AM,64.0,62.1,93,29.96,10.0,WSW,8.1,-,N/A,,Overcast,240,2013-12-02 07:53:00
2:53 AM,63.0,61.0,93,29.93,9.0,SW,10.4,-,N/A,,Clear,220,2013-12-02 08:53:00
3:53 AM,63.0,61.0,93,29.91,9.0,SSW,8.1,-,N/A,,Clear,210,2013-12-02 09:53:00
4:53 AM,62.1,60.1,93,29.90,8.0,WSW,3.5,-,N/A,,Clear,240,2013-12-02 10:53:00
5:53 AM,61.0,60.1,97,29.89,7.0,Calm,Calm,-,N/A,,Clear,0,2013-12-02 11:53:00
6:53 AM,60.1,59.0,96,29.90,6.0,WSW,3.5,-,N/A,,Clear,240,2013-12-02 12:53:00
7:53 AM,61.0,60.1,97,29.89,4.0,SW,6.9,-,N/A,,Clear,220,2013-12-02 13:53:00
8:53 AM,61.0,61.0,100,29.91,4.0,Calm,Calm,-,N/A,,Mostly Cloudy,0,2013-12-02 14:53:00
9:20 AM,62.6,60.8,94,29.91,5.0,WSW,3.5,-,N/A,,Overcast,240,2013-12-02 15:20:00
9:53 AM,64.0,62.1,93,29.92,6.0,WSW,5.8,-,N/A,,Mostly Cloudy,240,2013-12-02 15:53:00
10:02 AM,64.4,62.6,94,29.91,7.0,SW,9.2,-,N/A,,Mostly Cloudy,220,2013-12-02 16:02:00
10:09 AM,64.4,62.6,94,29.91,7.0,SW,9.2,-,N/A,,Scattered Clouds,220,2013-12-02 16:09:00
10:53 AM,66.0,63.0,90,29.90,8.0,SW,11.5,-,N/A,,Partly Cloudy,230,2013-12-02 16:53:00
11:53 AM,69.1,63.0,81,29.87,9.0,SSW,11.5,-,N/A,,Clear,200,2013-12-02 17:53:00
12:53 PM,66.9,61.0,81,29.82,9.0,SSW,10.4,-,N/A,,Clear,200,2013-12-02 18:53:00
1:53 PM,68.0,62.1,81,29.78,10.0,South,9.2,-,N/A,,Clear,190,2013-12-02 19:53:00
2:53 PM,69.1,63.0,81,29.75,7.0,South,10.4,-,N/A,,Clear,190,2013-12-02 20:53:00
3:53 PM,68.0,62.1,81,29.75,9.0,South,9.2,-,N/A,,Clear,190,2013-12-02 21:53:00
4:53 PM,66.0,61.0,84,29.73,8.0,South,10.4,-,N/A,,Clear,180,2013-12-02 22:53:00
5:53 PM,63.0,60.1,90,29.73,9.0,South,8.1,-,N/A,,Clear,180,2013-12-02 23:53:00
6:53 PM,81.0,61.0,50,29.75,7.0,SSW,5.8,-,N/A,,Clear,200,2013-12-03 00:53:00
7:53 PM,82.0,61.0,49,29.75,7.0,South,5.8,-,N/A,,Clear,180,2013-12-03 01:53:00
8:53 PM,82.9,61.0,47,29.75,5.0,South,8.1,-,N/A,,Haze,180,2013-12-03 02:53:00
9:53 PM,82.0,62.1,51,29.75,6.0,SSW,8.1,95.5,N/A,,Haze,210,2013-12-03 03:53:00
10:53 PM,81.0,61.0,50,29.75,6.0,SW,9.2,25.3,N/A,,Haze,220,2013-12-03 04:53:00
11:53 PM,81.0,62.1,52,29.74,5.0,SSW,12.7,-,N/A,,Haze,210,2013-12-03 05:53:00